Regional Weather Roundup
Issued by NWS

Home | Current Version | Previous Version | Graphics & Text | Print | Product List | Glossary On
Versions: 1 2 3 4 5 6 7 8 9 10 11 12 13 14 15 16 17 18 19 20 21 22 23 24 25 26 27 28 29 30 31 32 33 34 35 36 37 38 39 40 41 42 43 44 45 46 47 48 49 50
000
ASUS44 KMEG 032200
RWRTN
TENNESSEE HOURLY STATE WEATHER ROUNDUP
NATIONAL WEATHER SERVICE MEMPHIS TN
500 PM CDT SUN MAY 03 2015

TNZ002-004-019-021-049-052-054-088>092-032300-
WEST TENNESSEE

CITY           SKY/WX    TMP DP  RH WIND       PRES   REMARKS
MEMPHIS INTL   MOSUNNY   81  50  33 S7        30.04F
NWS MEMPHIS      N/A     83 N/A N/A MISG        N/A
JACKSON        SUNNY     80  46  30 S10       30.06F
DYERSBURG      PTSUNNY   81  41  24 S8        30.05F
PARIS          SUNNY     75  48  38 S9        30.06F
LEXINGTON      SUNNY     79  46  31 SW8       30.06F
$$

TNZ008-025-027-028-033-062-065-066-032300-
NORTH MIDDLE TENNESSEE

CITY           SKY/WX    TMP DP  RH WIND       PRES   REMARKS
NASHVILLE      PTSUNNY   79  48  33 S9        30.08S
CLARKSVILLE    SUNNY     79  48  33 SW9G17    30.06S
COOKEVILLE     MOSUNNY   81  52  36 VRB5      30.09F
CROSSVILLE     MOSUNNY   74  45  35 VRB3      30.13F
$$

TNZ061-075-076-078-094-096-097-032300-
SOUTH MIDDLE TENNESSEE

CITY           SKY/WX    TMP DP  RH WIND       PRES   REMARKS
FAYETTEVILLE     N/A     75  46  35 SW9       30.11S
TULLAHOMA      SUNNY     75  45  33 CALM      30.11F
WINCHESTER     SUNNY     79  46  31 S5        30.11R
MCMINNVILLE    SUNNY     79  52  38 SW8       30.10S
COLUMBIA       SUNNY     79  50  36 S8        30.08S
SHELBYVILLE    SUNNY     79  52  38 SW9       30.10F
$$

TNZ017-018-042-046-047-032300-
NORTHEAST TENNESSEE

CITY           SKY/WX    TMP DP  RH WIND       PRES   REMARKS
TRI CITIES     MOSUNNY   76  41  28 N5        30.12S
ELIZABETHTON   CLEAR     75  45  33 W7        30.12S
$$

TNZ012-013-036-069-073-074-032300-
CENTRAL EAST TENNESSEE

CITY           SKY/WX    TMP DP  RH WIND       PRES   REMARKS
KNOXVILLE      MOSUNNY   77  44  30 W9        30.10F
OAK RIDGE      SUNNY     79  44  28 VRB6      30.12S
GATLINBURG     CLEAR     77  43  29 VRB5      30.10S
$$

TNZ083-085-099-032300-
SOUTHEAST TENNESSEE

CITY           SKY/WX    TMP DP  RH WIND       PRES   REMARKS
CHATTANOOGA    MOSUNNY   79  43  27 S9        30.10F
$$

SKY/WX REPORTED AS FAIR MEANS FEW OR NO CLOUDS BELOW
12 THOUSAND FEET.




USA.gov is the U.S. government's official web portal to all federal, state and local government web resources and services.